Regional Weather Roundup
Issued by NWS

Home | Current Version | Previous Version | Graphics & Text | Print | Product List | Glossary On
Versions: 1 2 3 4 5 6 7 8 9 10 11 12 13 14 15 16 17 18 19 20 21 22 23 24 25 26 27 28 29 30 31 32 33 34 35 36 37 38 39 40 41 42 43 44 45 46 47 48 49 50
000
ASUS43 KMPX 240701
RWRMN
WEATHER ROUNDUP FOR MINNESOTA
NATIONAL WEATHER SERVICE TWIN CITIES/CHANHASSEN MN
100 AM CST SAT FEB 24 2018


NOTE: "FAIR" INDICATES FEW OR NO CLOUDS BELOW 12,000 FEET WITH NO
SIGNIFICANT WEATHER AND/OR OBSTRUCTIONS TO VISIBILITY. N/A MEANS
CURRENT SKY AND/OR WEATHER CONDITIONS ARE NOT AVAILABLE.

MNZ060>063-068>070-240800-
   Twin Cities Metro

CITY           SKY/WX    TMP DP  RH WIND       PRES   REMARKS
TWIN CITIES    FAIR      14  11  87 CALM      30.26F
ST PAUL        FAIR      15  12  88 NW6       30.28F WCI   6
CRYSTAL        FAIR      10   6  84 CALM      30.25F
BLAINE         FAIR      12  12 100 CALM      30.25F FOG
LAKEVILLE      FAIR       9   9 100 CALM      30.26S
EDEN PRAIRIE   FAIR      14  10  84 N6        30.25F WCI   5
SOUTH ST PAUL  FAIR      14  11  90 CALM      30.26F
LAKE ELMO      FAIR       7   3  85 CALM      30.27F FOG
$$
MNZ001>005-007-008-013>017-022>024-027-028-240800-
   Northwest Minnesota

CITY           SKY/WX    TMP DP  RH WIND       PRES   REMARKS
BEMIDJI        FAIR       3   0  87 SW5       30.19S WCI  -7
HALLOCK        FAIR       1  -2  85 S13       30.16S WCI -16
ROSEAU         FAIR       3   0  85 S9        30.16S WCI -11
WARROAD        FAIR       5   1  85 SW10      30.16S WCI -10
THIEF RVR FALL FAIR      -1  -4  87 S9        30.20S WCI -16
CROOKSTON      FAIR       0  -2  92 S8        30.22S WCI -15
FOSSTON        FAIR      -4  -8  84 S8        30.20F WCI -19
DETROIT LAKES  FAIR       1   0  92 CALM      30.22S
MOORHEAD       FAIR      -4  -9  77 S5        30.23F WCI -15
PARK RAPIDS    FAIR       0  -5  79 CALM      30.19F
MAHNOMEN       FAIR       1  -2  85 S9        30.21S WCI -14
$$
MNZ006-009>011-018-025>026-240800-
   North Central Minnesota

CITY           SKY/WX    TMP DP  RH WIND       PRES   REMARKS
BAUDETTE       FAIR       2  -2  83 S5        30.16S WCI  -8
FLAG ISLAND    FAIR      -2  -6  84 SE5       30.14S WCI -12
INTL FALLS     FAIR       1  -1  91 SW5       30.18S WCI  -9
WASKISH        FAIR       7   3  85 SW5       30.19S WCI  -2
LONGVILLE      FAIR       0  -6  78 CALM      30.21F
GRAND RAPIDS   FAIR       7   2  80 CALM      30.22S
CRANE LAKE     FAIR      -2  -4  92 CALM      30.22R
ORR            FAIR       5   0  78 CALM      30.16S
COOK             N/A      1   0  92 W5        30.19S WCI  -8
WALKER         FAIR       6   3  87 SW3       30.20F
$$
MNZ012-019>021-037-240800-
   Northeast Minnesota

CITY           SKY/WX    TMP DP  RH WIND       PRES   REMARKS
DULUTH         FAIR      16   8  71 NW6       30.18S WCI   7
ELY            FAIR       9   3  78 W3        30.18R
HIBBING        FAIR      -3  -5  90 W3        30.18F
DULUTH HARBOR  FAIR      21  16  79 SW7       30.25R WCI  13
TWO HARBORS    FAIR      19  12  73 W5        30.18R WCI  13
GRAND MARAIS     N/A     21  15  78 W5        30.19R WCI  15
G MARAIS ARPRT FAIR      16   9  73 W3        30.12R
$$
MNZ029>031-032-039>041-046>048-054>057-064-240800-
   West Central Minnesota

CITY           SKY/WX    TMP DP  RH WIND       PRES   REMARKS
FERGUS FALLS   FAIR       0  -2  92 CALM      30.25F
WHEATON        HAZE     -13 -18  77 CALM      30.26S VSB 3/4
MORRIS         HAZE     -15 -20  76 CALM      30.22F VSB<1/4
ALEXANDRIA     FAIR       0  -3  87 CALM      30.22F
ELBOW LAKE     FAIR      -7 -11  84 CALM      30.24F
WADENA         FAIR      -2  -6  84 CALM      30.22S
GLENWOOD       FAIR       3   0  85 N7        30.22F WCI  -9
APPLETON       HAZE      -9 -15  77 CALM      30.24F VSB 1/4
MADISON        SNOW      -8 -13  77 CALM      30.25S VSB 1/4
WILLMAR        FAIR      -4  -8  84 NE3       30.25F
$$
MNZ033>034-036-042>043-049>051-058-059-240800-
   Central Minnesota

CITY           SKY/WX    TMP DP  RH WIND       PRES   REMARKS
ST CLOUD       FAIR       4   2  91 CALM      30.25F FOG
SAUK CENTRE    FAIR      -5  -8  88 CALM      30.24F
PAYNESVILLE    FAIR      -7 -10  86 CALM      30.25F
AITKIN         FAIR       7   3  85 SW3       30.22S
PINE RIVER     FAIR      -2  -6  84 CALM      30.25S
BRAINERD       FAIR       6   1  80 CALM      30.23F
STAPLES        FAIR      -6  -9  84 CALM      30.23S FOG
LONG PRAIRIE   FAIR      -6  -8  92 CALM      30.24S
LITTLE FALLS   FAIR       1  -6  71 CALM      30.25F
LITCHFIELD     FAIR       7   5  92 CALM      30.24F
BUFFALO        FAIR       7   4  89 CALM      30.26F
MAPLE LAKE     FAIR       6   4  91 NW5       30.25F WCI  -3
HUTCHINSON     FAIR       3   0  88 CALM      30.25F FOG
$$
MNZ037-044-045-052-053-240800-
   East Central Minnesota

CITY           SKY/WX    TMP DP  RH WIND       PRES   REMARKS
PRINCETON      FAIR       3   0  85 CALM      30.26S
CAMBRIDGE        N/A      9   1  72 CALM      30.27S HAZE
RUSH CITY      FAIR       9   7  90 CALM      30.26F
MOOSE LAKE     FAIR      14  10  85 SW3       30.22S
HINCKLEY       FAIR      12  10  92 CALM      30.24F
CLOQUET        FAIR      16   9  73 W6        30.20F WCI   7
MCGREGOR       FAIR      10   9  92 CALM      30.23S
$$
MNZ071>073-080-081-089-090-097-098-240800-
   Southwest Minnesota

CITY           SKY/WX    TMP DP  RH WIND       PRES   REMARKS
MONTEVIDEO     CLOUDY     0  -4  85 CALM      30.25S FOG
GRANITE FALLS  FOG       -4  -8  82 CALM      30.27F VSB 1/2
CANBY          CLOUDY     2  -1  86 CALM      30.24F
MARSHALL       FOG        2  -1  88 SE6       30.25S VSB 1/4 WCI  -9
REDWOOD FALLS  CLOUDY     5   3  91 CALM      30.25S FOG
OLIVIA         CLOUDY     1  -2  85 N5        30.24F FOG     WCI  -8
PIPESTONE      FOG        9   7  92 CALM      30.19F VSB 1/4
WORTHINGTON    FOG       13  11  92 NE6       30.22F VSB 1/4 WCI   4
JACKSON        FOG       12  10  92 CALM      30.23F VSB 1/4
TRACY          FOG       11   9  92 CALM      30.23F VSB 1/2
SLAYTON        FOG       11   9  92 CALM      30.22F VSB 1/4
$$
MNZ065>067-074>077-082>085-091>093-240800-
   South Central Minnesota

CITY           SKY/WX    TMP DP  RH WIND       PRES   REMARKS
MANKATO        FOG        6   3  87 CALM      30.28S VSB 1/4
NEW ULM        CLOUDY     3   0  85 CALM      30.27S FOG
ST JAMES       CLOUDY     1   0  92 CALM      30.27F FOG
FAIRMONT       FOG        5   2  87 NW5       30.26F VSB 1/4 WCI  -4
GLENCOE        FAIR       7   4  89 N3        30.25F
FARIBAULT      MOCLDY    10   9  92 S5        30.27R FOG     WCI   2
OWATONNA       FOG        7   3  85 CALM      30.26S VSB<1/4
WASECA         FOG        9   5  85 CALM      30.28S VSB<1/4
ALBERT LEA     FOG       12   9  85 CALM      30.25F VSB<1/4
$$
MNZ078>079-086>088-094>096-240800-
   Southeast Minnesota

CITY           SKY/WX    TMP DP  RH WIND       PRES   REMARKS
ROCHESTER      FAIR      13  12  96 CALM      30.25S FOG
RED WING       FAIR      10   5  79 CALM      30.26F
STANTON        FOG        1  -3  85 S3        30.25F VSB 3/4
DODGE CENTER   FOG        7   3  85 CALM      30.25S VSB<1/4
WINONA         FAIR      14  12  92 CALM      30.29S FOG
AUSTIN         FOG       12   9  85 CALM      30.25  VSB 1/2
PRESTON        FAIR      14  12  91 CALM      30.26F FOG
$$
ABBREVIATIONS USED IN REMARKS
   TC - TEMPERATURES IN CELSIUS
  WCI - WIND CHILL INDEX
   HX - HEAT INDEX
  VSB - VISIBILITY
$$




USA.gov is the U.S. government's official web portal to all federal, state and local government web resources and services.